METEOR 2-5 DEB, 36923

Orbit data source: Space-Track

METEOR 2-5 DEB, 36923 is space debris in LEO originally from a launch on Wed, 31 Oct 1979 UTC launched from the Plesetsk Missile And Space Complex (PKMTR). Debris objects in space refer to the collection of defunct objects orbiting the Earth. Examples of debris include non-operational satellites, rocket bodies, and fragments generated from explosions, collisions, or faulty payload assembly.

Loading next visibility...
Identifier
36923, 1979-095BQ
Orbit
LEO
Country
Flag of CISCIS
Related business
Manufacturer
Unknown
Mission
Spacecraft
Bus & Motor
Unknown
Mass
Unknown
Launch date (UTC)
1979-10-31 (47 years ago)
Launch vehicle
Unknown
Launch site
Plesetsk Missile And Space Complex (PKMTR)
Object type
Payload
Rocket body
Debris
Shape & HBR
Unknown shape, 0.1 m
Radar Cross Section
Small (<0.1 m²)

Expand to show TLE details & history
Last TLE update: 22 hours ago

TLE from 22 hours ago
0 METEOR 2-5 DEB
1 36923U 79095BQ  26123.33113149  .00011422  00000-0  26702-2 0  9991
2 36923  81.1854 125.6135 0003961  31.2896 328.8534 14.54592429 18864
Epoch: 2026-05-03T07:56Z
TLE epoch observation values (Epoch: 2026-05-03T07:56:49.760Z)
Latitude
-0.00006°
Longitude
145.16994°
Altitude
711.244 km
Speed
7.501 km/s
True Right ascension
08h 22m 27s
True Declination
0° 00' 00"
Sunlit
Object was in daylight at epoch
Visualization orbit readout
Latitude
Unknown
Longitude
Unknown
Altitude
Unknown
Speed
Unknown
Apparent Right ascension
Unknown
Apparent Declination
Unknown
Sunlit
N/A
Visualization observer readout
Local Sidereal Time
13:20:20
Azimuth
Unknown
Elevation
Unknown
Doppler factor
Unknown
Orbital elements
Apogee altitude
710.613 km
Perigee altitude
705 km
Semi-major axis
7,085.943 km
Eccentricity
0.0004
Inclination
81.1854°
RAAN
125.6135°
Arg. of periapsis
31.2896°
True anomaly
328.82991°
Mean anomaly
328.8534°
Eccentric anomaly
328.84166°
Mean motion
3.6387 °/min
Orbital period
98.94 mins
BSTAR
0.0026702
Loading maneuver chart data...
Computing Atmospheric mass density...
Loading historical data...
Loading historical data...
Loading historical data...
Loading historical data...
Loading historical data...
Loading historical data...
Loading historical data...

Documentation

Showing up to 5 results
|